Location: WWIN Observatory
(34.8953°N, 91.9583°W)
Time: 06:38:22
(UTC-06:00)

Envisat - Visible Passes

Search period start: 22 November 2019 00:00
Search period end: 02 December 2019 00:00
Orbit: 764 x 766 km, 98.1° (Epoch: 22 November)

Date Brightness Start Highest point End Pass type
(mag) Time Alt. Az. Time Alt. Az. Time Alt. Az.
22 Nov 3.2 17:44:34 10° SE 17:49:23 46° ENE 17:54:13 10° N visible
22 Nov 5.7 19:25:21 10° SW 19:28:35 17° W 19:31:50 10° NW visible
23 Nov 5.9 05:57:36 10° NE 06:01:22 21° E 06:05:07 10° SE visible
23 Nov 4.3 18:46:51 10° SSW 18:51:35 40° W 18:56:22 10° NNW visible
24 Nov 2.9 18:09:43 10° SSE 18:14:48 85° ENE 18:19:53 10° N visible
25 Nov 4.8 06:22:17 10° NNE 06:27:01 38° E 06:31:42 10° SSE visible
25 Nov 3.5 17:33:35 10° SE 17:38:10 36° ENE 17:42:46 10° N visible
25 Nov 5.4 19:13:21 10° SW 19:17:13 22° W 19:21:07 10° NW visible
26 Nov 6.0 05:46:56 10° NE 05:50:01 16° E 05:53:04 10° SE visible
26 Nov 3.8 18:35:22 10° S 18:40:17 52° W 18:45:15 10° NNW visible
27 Nov 2.9 17:58:32 10° SSE 18:03:33 66° ENE 18:08:34 10° N visible
27 Nov 6.2 19:41:17 10° WSW 19:42:56 11° W 19:44:36 10° WNW visible
28 Nov 5.3 06:11:16 10° NE 06:15:41 29° E 06:20:04 10° SSE visible
28 Nov 3.8 17:22:42 10° SE 17:26:59 28° ENE 17:31:15 10° NNE visible
28 Nov 5.0 19:01:33 10° SSW 19:05:53 28° W 19:10:14 10° NW visible
29 Nov 6.3 05:36:42 10° ENE 05:38:38 12° E 05:40:33 10° ESE visible
29 Nov 3.3 18:23:58 10° S 18:29:00 68° WSW 18:34:04 10° NNW visible
30 Nov 3.1 17:47:25 10° SSE 17:52:18 50° ENE 17:57:12 10° N visible
30 Nov 5.9 19:28:39 10° SW 19:31:34 15° W 19:34:29 10° WNW visible
01 Dec 5.7 06:00:22 10° NE 06:04:21 23° E 06:08:18 10° SSE visible
01 Dec 4.5 18:49:54 10° SSW 18:54:33 36° W 18:59:14 10° NNW visible
